Weather History for KRRL - August, 2013

Change the Weather History Date:

Thursday, August 22, 2013

  Actual Average Record
Temperature  
Mean Temperature 66 °F -  
Max Temperature 79 °F 76 °F 93 °F (1968)
Min Temperature 53 °F 52 °F 33 °F (1950)
Cooling Degree Days 1    
Growing Degree Days 16 (Base 50)    
Moisture  
Dew Point 56 °F    
Average Humidity 76    
Maximum Humidity 100    
Minimum Humidity 42    
Precipitation  
Precipitation 0.00 in - - ()
Sea Level Pressure  
Sea Level Pressure 30.10 in    
Wind  
Wind Speed 1 mph (NNE)    
Max Wind Speed 7 mph    
Max Gust Speed -    
Visibility 8 miles    
Events Fog    
Averages and records for this station are not official NWS values.
T = Trace of Precipitation, MM = Missing Value Source: NWS Daily Summary

Daily Weather History Graph

Daily Weather History Graph

Search for Another Location

Airport or City:

Trip Planner

Search our weather history database for the weather conditions in past years. The results will help you decide how hot, cold, wet, or windy it might be!

Date:

Astronomy

Aug. 22, 2013 Rise Set
Actual Time 6:08 AM CDT 7:53 PM CDT
Civil Twilight 5:37 AM CDT 8:24 PM CDT
Nautical Twilight 4:59 AM CDT 9:02 PM CDT
Astronomical Twilight 4:17 AM CDT 9:43 PM CDT
Moon 8:28 PM CDT (8/22) 8:05 AM CDT (8/22)
Length of Visible Light 14h 47m
Length of Day
13h 44m
Waning Gibbous, 96% of the Moon is Illuminated
Aug 22
Waning Gibbous
Aug 28
Last Quarter
Sep 5
New
Sep 12
First Quarter
Sep 19
Full

Hourly Weather History & Observations

Time (CDT) Temp. Dew Point Humidity Pressure Visibility Wind Dir Wind Speed Gust Speed Precip Events Conditions
12:15 AM 59.4 °F 59.4 °F 100% 30.05 in 0.5 mi Calm Calm - N/A Fog Fog
12:35 AM 59.7 °F 59.7 °F 100% 30.04 in 0.8 mi Calm Calm - N/A   Mist
12:55 AM 59.0 °F 59.0 °F 100% 30.04 in 1.5 mi Calm Calm - N/A   Mist
1:15 AM 59.7 °F 59.7 °F 100% 30.04 in 2.5 mi Calm Calm - N/A   Clear
1:35 AM 56.5 °F 56.5 °F 100% 30.05 in 0.5 mi Calm Calm - N/A Fog Fog
1:55 AM 55.2 °F 55.2 °F 100% 30.05 in 0.2 mi Calm Calm - N/A Fog Fog
2:15 AM 55.4 °F 55.4 °F 100% 30.05 in 0.2 mi Calm Calm - N/A Fog Fog
2:35 AM 56.1 °F 56.1 °F 100% 30.06 in 0.5 mi Calm Calm - N/A Fog Fog
2:55 AM 57.4 °F 57.4 °F 100% 30.06 in 1.0 mi Calm Calm - N/A   Overcast
3:15 AM 56.5 °F 56.5 °F 100% 30.06 in 0.2 mi Calm Calm - N/A Fog Fog
3:35 AM 57.4 °F 57.4 °F 100% 30.06 in 0.2 mi Calm Calm - N/A Fog Fog
3:55 AM 57.4 °F 57.4 °F 100% 30.06 in 0.8 mi Calm Calm - N/A   Overcast
4:15 AM 55.4 °F 55.4 °F 100% 30.06 in 0.2 mi Calm Calm - N/A Fog Fog
4:35 AM 54.9 °F 54.9 °F 100% 30.06 in 0.5 mi Calm Calm - N/A Fog Fog
4:55 AM 55.6 °F 55.6 °F 100% 30.07 in 1.0 mi Calm Calm - N/A   Overcast
5:15 AM 55.6 °F 55.6 °F 100% 30.07 in 0.2 mi Calm Calm - N/A Fog Fog
5:35 AM 54.5 °F 54.5 °F 100% 30.08 in 0.2 mi Calm Calm - N/A Fog Fog
5:55 AM 54.1 °F 54.1 °F 100% 30.09 in 0.2 mi Calm Calm - N/A Fog Fog
6:15 AM 55.2 °F 55.2 °F 100% 30.09 in 1.0 mi Calm Calm - N/A   Mostly Cloudy
6:35 AM 53.8 °F 53.8 °F 100% 30.10 in 10.0 mi Calm Calm - N/A   Clear
6:55 AM 54.7 °F 54.7 °F 100% 30.11 in 10.0 mi Calm Calm - N/A   Clear
7:15 AM 55.6 °F 55.6 °F 100% 30.11 in 10.0 mi Calm Calm - N/A   Scattered Clouds
7:35 AM 57.4 °F 57.4 °F 100% 30.11 in 10.0 mi Calm Calm - N/A   Scattered Clouds
7:55 AM 59.4 °F 59.4 °F 100% 30.12 in 10.0 mi Calm Calm - N/A   Clear
8:15 AM 60.6 °F 59.5 °F 96% 30.11 in 10.0 mi Calm Calm - N/A   Clear
8:35 AM 61.9 °F 59.7 °F 93% 30.12 in 10.0 mi Calm Calm - N/A   Scattered Clouds
8:55 AM 62.8 °F 60.3 °F 91% 30.11 in 10.0 mi Calm Calm - N/A   Scattered Clouds
9:15 AM 63.5 °F 61.0 °F 91% 30.12 in 10.0 mi Calm Calm - N/A   Clear
9:35 AM 64.6 °F 61.3 °F 89% 30.13 in 10.0 mi Calm Calm - N/A   Clear
9:55 AM 66.7 °F 61.7 °F 84% 30.13 in 10.0 mi North 3.5 mph - N/A   Clear
10:15 AM 67.8 °F 59.5 °F 75% 30.14 in 10.0 mi North 4.6 mph - N/A   Clear
10:35 AM 68.5 °F 60.4 °F 75% 30.13 in 10.0 mi NNE 4.6 mph - N/A   Clear
10:55 AM 69.4 °F 61.9 °F 77% 30.13 in 10.0 mi Calm Calm - N/A   Clear
11:15 AM 70.9 °F 61.3 °F 72% 30.13 in 10.0 mi NNE 5.8 mph - N/A   Clear
11:35 AM 71.8 °F 60.6 °F 68% 30.12 in 10.0 mi NNE 3.5 mph - N/A   Clear
11:55 AM 73.0 °F 58.5 °F 60% 30.12 in 10.0 mi NNE 4.6 mph - N/A   Clear
12:15 PM 73.9 °F 54.5 °F 51% 30.12 in 10.0 mi NE 3.5 mph - N/A   Clear
12:35 PM 75.0 °F 53.6 °F 47% 30.12 in 10.0 mi ENE 5.8 mph - N/A   Clear
12:55 PM 76.3 °F 54.5 °F 47% 30.12 in 10.0 mi NNE 6.9 mph - N/A   Clear
1:15 PM 76.6 °F 55.6 °F 48% 30.11 in 10.0 mi East 4.6 mph - N/A   Clear
1:35 PM 76.6 °F 55.2 °F 47% 30.11 in 10.0 mi Calm Calm - N/A   Clear
1:55 PM 77.2 °F 54.9 °F 46% 30.11 in 10.0 mi Calm Calm - N/A   Clear
2:15 PM 77.9 °F 54.5 °F 44% 30.11 in 10.0 mi ENE 6.9 mph - N/A   Clear
2:35 PM 77.7 °F 55.0 °F 45% 30.10 in 10.0 mi Calm Calm - N/A   Clear
2:55 PM 78.1 °F 55.2 °F 45% 30.10 in 10.0 mi Calm Calm - N/A   Clear
3:15 PM 78.4 °F 53.4 °F 42% 30.10 in 10.0 mi Calm Calm - N/A   Clear
3:35 PM 79.0 °F 55.0 °F 44% 30.10 in 10.0 mi ESE 6.9 mph - N/A   Clear
3:55 PM 79.0 °F 53.8 °F 42% 30.10 in 10.0 mi NNE 4.6 mph - N/A   Clear
4:15 PM 79.0 °F 53.8 °F 42% 30.10 in 10.0 mi Calm Calm - N/A   Clear
4:35 PM 79.0 °F 53.8 °F 42% 30.10 in 10.0 mi Calm Calm - N/A   Clear
4:55 PM 79.3 °F 54.1 °F 42% 30.10 in 10.0 mi North 3.5 mph - N/A   Clear
5:15 PM 79.2 °F 54.7 °F 43% 30.10 in 10.0 mi NNW 4.6 mph - N/A   Clear
5:35 PM 78.8 °F 55.4 °F 44% 30.10 in 10.0 mi NNW 4.6 mph - N/A   Clear
5:55 PM 78.4 °F 54.0 °F 43% 30.10 in 10.0 mi Calm Calm - N/A   Clear
6:15 PM 78.3 °F 54.7 °F 44% 30.10 in 10.0 mi NNW 4.6 mph - N/A   Clear
6:35 PM 76.5 °F 54.3 °F 46% 30.10 in 10.0 mi North 4.6 mph - N/A   Clear
6:55 PM 75.2 °F 55.4 °F 50% 30.10 in 10.0 mi North 3.5 mph - N/A   Clear
7:15 PM 73.0 °F 55.6 °F 54% 30.11 in 10.0 mi North 3.5 mph - N/A   Clear
7:35 PM 70.7 °F 55.2 °F 58% 30.11 in 10.0 mi North 3.5 mph - N/A   Clear
7:55 PM 66.7 °F 57.2 °F 71% 30.11 in 10.0 mi Calm Calm - N/A   Clear
8:15 PM 62.2 °F 57.2 °F 84% 30.12 in 10.0 mi Calm Calm - N/A   Clear
8:35 PM 64.8 °F 57.4 °F 77% 30.13 in 10.0 mi Calm Calm - N/A   Clear
8:55 PM 61.9 °F 55.4 °F 79% 30.13 in 10.0 mi Calm Calm - N/A   Clear
9:15 PM 60.8 °F 54.3 °F 79% 30.14 in 10.0 mi Calm Calm - N/A   Clear
9:35 PM 59.7 °F 54.7 °F 83% 30.15 in 10.0 mi Calm Calm - N/A   Clear
9:55 PM 59.2 °F 53.1 °F 80% 30.15 in 10.0 mi North 4.6 mph - N/A   Clear
10:15 PM 57.7 °F 53.6 °F 86% 30.15 in 10.0 mi NE 4.6 mph - N/A   Clear
10:35 PM 58.6 °F 53.2 °F 82% 30.16 in 10.0 mi NE 3.5 mph - N/A   Clear
10:55 PM 57.0 °F 53.1 °F 87% 30.17 in 10.0 mi ENE 3.5 mph - N/A   Clear
11:15 PM 55.8 °F 52.3 °F 88% 30.17 in 10.0 mi NE 3.5 mph - N/A   Clear
11:35 PM 55.9 °F 52.2 °F 87% 30.17 in 10.0 mi NNE 4.6 mph - N/A   Clear
11:55 PM 55.4 °F 52.3 °F 89% 30.17 in 10.0 mi Calm Calm - N/A   Clear